Miscellaneous Local Product
Issued by NWS North Platte, NE

Home | Current Version | Previous Version | Text Only | Print | Product List | Glossary On
Versions: 1 2 3 4 5 6 7 8 9 10 11 12 13 14 15 16 17 18 19 20 21 22 23 24 25 26 27 28 29 30 31 32 33 34 35 36 37 38 39 40 41 42 43 44 45 46 47 48 49 50
375
AXUS43 KLBF 200910
MISLBF


WESTERN AND NORTH CENTRAL NEBRASKA HOURLY WEATHER ROUNDUP
NATIONAL WEATHER SERVICE NORTH PLATTE NE
400 AM CDT WED SEP 20 2017

NOTE: "FAIR" INDICATES FEW OR NO CLOUDS BELOW 12,000 FEET WITH NO
SIGNIFICANT WEATHER AND/OR OBSTRUCTIONS TO VISIBILITY.

NOTE: STATIONS NOT REPORTING VARIABLES SUCH AS SKY/WEATHER OR
PRESSURE ARE PROVIDED BY RAWS AND APRS NETWORKS AND ARE NOT UNDER
NATIONAL WEATHER SERVICE QUALITY CONTROL.

...OBSERVATIONS IN AND NEAR THE EASTERN PANHANDLE OF NEBRASKA...

CITY           SKY/WX    TMP DP  RH WIND       PRES   REMARKS
GORDON         FAIR      51  35  55 W9        29.81R
CHADRON        CLOUDY    42  33  70 SW6       29.83R
ALLIANCE       CLOUDY    52  33  48 W17       29.83R
SIDNEY         CLEAR     53  29  39 NW14      29.88R
CRESCENT LAKE    N/A     53  34  48 NW6G13      N/A
$$

...OBSERVATIONS IN NORTHERN NEBRASKA AND FAR SOUTHERN SOUTH DAKOTA...

CITY           SKY/WX    TMP DP  RH WIND       PRES   REMARKS
WINNER         FAIR      52  48  86 SW6       29.79R
VALENTINE      CLOUDY    53  47  79 SE5       29.80R
THEDFORD       CLEAR     47  42  82 CALM      29.84R
AINSWORTH      MOCLDY    52  47  84 NW3       29.82R
O`NEILL        CLEAR     54  49  85 NW9       29.78R
ORD            CLEAR     50  46  86 NW7       29.76R
BROKEN BOW     PTCLDY    55  43  63 N8        29.80R
VALENTINE NWR    N/A     48  45  89 CALM        N/A
HALSEY           N/A     50  41  71 CALM        N/A
BUTTE            N/A     51  47  85 W3          N/A
CHAMBERS         N/A     55  46  73 CALM        N/A
EWING            N/A     54  50  87 CALM        N/A
$$

...OBSERVATIONS IN SOUTHWEST NEBRASKA AND FAR NORTHEAST COLORADO...

CITY           SKY/WX    TMP DP  RH WIND       PRES   REMARKS
WRAY           FAIR      43  32  65 CALM      29.89S
IMPERIAL       CLOUDY    49  33  54 NW7       29.88R
OGALLALA       CLEAR     47  35  62 CALM      29.86S
NORTH PLATTE   CLEAR     45  41  86 NW8       29.84R
MCCOOK         CLOUDY    50  36  58 W9        29.84R
LEXINGTON      CLEAR     49  45  85 W8        29.82R
STAPLETON        N/A     47  40  76 CALM        N/A
GOTHENBURG       N/A     54  39  57 NW3         N/A
CALLAWAY         N/A     53  45  75 N5          N/A
$$

...OBSERVATIONS IN CENTRAL LINCOLN COUNTY AREA...

CITY           SKY/WX    TMP DP  RH WIND       PRES   REMARKS
N.P. AIRPORT   CLEAR     45  41  86 NW8       29.84R
N.P. DOWNTOWN    N/A     50  39  65 CALM        N/A
N.P. SOUTHEAST   N/A     51  38  60 NW3         N/A
N.P. HILLCREST   N/A     48  39  70 NW5         N/A
$$

...SOME OBSERVATIONS FROM AROUND THE REGION...

CITY           SKY/WX    TMP DP  RH WIND       PRES   REMARKS
DENVER         PTCLDY    42  29  59 S12       29.90R
LIMON          CLOUDY    44  32  62 NE15      29.93R
ASPEN          CLOUDY    53  32  44 NW6       30.00R
LARAMIE        CLOUDY    41  25  53 W16       29.99F
CASPER         CLEAR     38  28  67 SW16      29.89R WCI  29
CHEYENNE       CLOUDY    45  26  47 W20G31    29.92F
SCOTTSBLUFF    CLOUDY    53  30  41 W13       29.87S
GRAND ISLAND   PTCLDY    59  51  75 NW9       29.75R
OMAHA          MOCLDY    75  69  81 SE8       29.64R
SIOUX FALLS    CLOUDY    63  61  93 W5        29.68R
PIERRE         MOCLDY    51  44  77 N8        29.73R
BISMARCK       CLEAR     48  43  82 W12       29.64R
KANSAS CITY    CLEAR     76  69  79 S14G23    29.71S
HILL CITY      CLEAR     59  41  51 NW8       29.79S
WICHITA        MOCLDY    76  68  76 S17       29.69F
DODGE CITY     CLEAR     61  38  42 N14       29.76S
OKLAHOMA CITY  PTCLDY    71  61  70 S13       29.78F
DALLAS         PTCLDY    82  72  71 S17       29.81F
AMARILLO       CLEAR     66  48  52 S14       29.81F
$$




USA.gov is the U.S. government's official web portal to all federal, state and local government web resources and services.